Location: Düngen
(52.0952°N, 10.0219°E)
Time: 16:03:23
(UTC+00:00)

Cosmos 921 Rocket - Pass Details

Date: 11 March 2026
Orbit: 563 x 620 km, 75.8° (Epoch: 14 April)

Event Time Altitude Azimuth Distance (km) Brightness Sun altitude
Rises 19:01:31 0° 202° (SSW) 2,761 6.5 -16.7°
Reaches altitude 10° 19:03:41 10° 203° (SSW) 1,875 5.6 -17.0°
Maximum altitude 19:07:51 83° 291° (WNW) 591 2.9 -17.6°
Drops below altitude 10° 19:12:09 10° 21° (NNE) 1,923 5.6 -18.2°
Sets 19:14:24 0° 22° (NNE) 2,838 6.4 -18.5°
